Weather History for Holland, MI

Change the Weather History Date:

Sunday, October 2, 2011

  Actual Average Record
Temperature  
Mean Temperature 47 °F 57 °F  
Max Temperature 60 °F 67 °F 86 °F (1971)
Min Temperature 34 °F 47 °F 32 °F (1975)
Degree Days  
Heating Degree Days 18 9  
Month to date heating degree days 17  
Since 1 July heating degree days 147  
Cooling Degree Days 0 1  
Month to date cooling degree days 2  
Year to date cooling degree days 684  
Moisture  
Dew Point 37 °F    
Average Humidity 68    
Maximum Humidity 89    
Minimum Humidity 47    
Precipitation  
Precipitation 0.00 in 0.10 in 0.91 in (2006)
Month to date precipitation 0.00 0.20  
Year to date precipitation 27.31  
Sea Level Pressure  
Sea Level Pressure 30.23 in    
Wind  
Wind Speed 3 mph (NW)    
Max Wind Speed 15 mph    
Max Gust Speed 22 mph    
Visibility 10 miles    
Events      
T = Trace of Precipitation, MM = Missing Value Source: NWS Daily Summary

Daily Weather History Graph

Daily Weather History Graph

Search for Another Location

Airport:

Trip Planner

Search our weather history database for the weather conditions in past years. The results will help you decide how hot, cold, wet, or windy it might be!

Date:

Astronomy

Oct. 02, 2011 Rise Set
Actual Time 7:42 AM EDT 7:24 PM EDT
Civil Twilight 7:14 AM EDT 7:52 PM EDT
Nautical Twilight 6:41 AM EDT 8:25 PM EDT
Astronomical Twilight 6:08 AM EDT 8:58 PM EDT
Moon 1:56 PM EDT (10/2) 11:14 PM EDT (10/2)
Length of Visible Light 12h 38m
Length of Day
11h 42m
Waxing Crescent, 34% of the Moon is Illuminated
Oct 2
Waxing Crescent
Oct 3
First Quarter
Oct 11
Full
Oct 19
Last Quarter
Oct 26
New

Hourly Weather History & Observations

Time (EDT) Temp. Windchill Dew Point Humidity Pressure Visibility Wind Dir Wind Speed Gust Speed Precip Events Conditions
12:53 AM 42.1 °F - 36.0 °F 79% 30.26 in 10.0 mi Calm Calm - N/A   Clear
1:53 AM 41.0 °F - 35.1 °F 79% 30.27 in 10.0 mi Calm Calm - N/A   Clear
2:53 AM 39.0 °F - 34.0 °F 82% 30.27 in 10.0 mi Calm Calm - N/A   Clear
3:53 AM 39.0 °F - 33.1 °F 79% 30.27 in 10.0 mi Calm Calm - N/A   Clear
4:53 AM 36.0 °F - 32.0 °F 86% 30.27 in 10.0 mi Calm Calm - N/A   Clear
6:53 AM 35.1 °F - 30.0 °F 82% 30.27 in 10.0 mi Calm Calm - N/A   Clear
7:53 AM 36.0 °F - 30.9 °F 82% 30.28 in 10.0 mi Calm Calm - N/A   Clear
8:53 AM 42.1 °F 39.2 °F 33.1 °F 70% 30.27 in 10.0 mi NNW 4.6 mph - N/A   Clear
9:53 AM 48.0 °F - 36.0 °F 63% 30.27 in 10.0 mi NNW 6.9 mph - N/A   Clear
10:53 AM 53.1 °F - 37.9 °F 57% 30.27 in 10.0 mi North 8.1 mph - N/A   Clear
11:53 AM 57.9 °F - 37.0 °F 46% 30.20 in 10.0 mi North 6.9 mph - N/A   Clear
12:53 PM 57.9 °F - 41.0 °F 53% 30.25 in 10.0 mi NNW 10.4 mph 17.3 mph N/A   Clear
1:53 PM 57.0 °F - 39.0 °F 51% 30.23 in 10.0 mi WNW 10.4 mph 17.3 mph N/A   Clear
2:53 PM 57.9 °F - 39.9 °F 51% 30.20 in 10.0 mi West 10.4 mph 16.1 mph N/A   Clear
3:53 PM 55.9 °F - 39.0 °F 53% 30.19 in 10.0 mi WNW 11.5 mph - N/A   Clear
4:53 PM 55.9 °F - 39.9 °F 55% 30.18 in 10.0 mi WNW 9.2 mph 20.7 mph N/A   Clear
5:53 PM 55.0 °F - 39.9 °F 57% 30.17 in 10.0 mi NW 10.4 mph 18.4 mph N/A   Clear
6:53 PM 54.0 °F - 42.1 °F 64% 30.17 in 10.0 mi NW 8.1 mph - N/A   Clear
7:53 PM 51.1 °F - 42.1 °F 71% 30.16 in 10.0 mi NW 4.6 mph - N/A   Clear
9:53 PM 46.0 °F - 41.0 °F 83% 30.17 in 10.0 mi Calm Calm - N/A   Clear
10:53 PM 43.0 °F - 37.9 °F 82% 30.17 in 9.0 mi Calm Calm - N/A   Clear
11:53 PM 42.1 °F - 37.9 °F 85% 30.17 in 7.0 mi Calm Calm - N/A   Clear